When you browse on this site, cookies collect data to enhance your experience and personalize the content and advertising you see.
Visit our Privacy Policy to learn more. By continuing to use the site, you agree to this use of cookies and data.
  • In Österreich
  • Länderverzeichnis
  • Für 7 Tage
  • Wassertemperatur
  • Satellitenkarten
  • Wetterkarte
  • News
  • Widgets
  • user-avatar
    Anmelden

    Stündliche Wetter Lusaka

    Heute, 21 November, Mittwoch

    Zeit Temperatur Niederschläge Wind Luftdruck Luftfeuchtigkeit
    00:00 +24°C° 0 mm 2 m/S 655 mmHg 41%
    01:00 +23°C° 0 mm 2 m/S 655 mmHg 44%
    02:00 +23°C° 0 mm 2 m/S 655 mmHg 47%
    03:00 +21°C° 0 mm 2 m/S 655 mmHg 51%
    04:00 +21°C° 0 mm 2 m/S 655 mmHg 56%
    05:00 +21°C° 0 mm 1 m/S 655 mmHg 60%
    06:00 +24°C° 0 mm 2 m/S 656 mmHg 54%
    07:00 +26°C° 0 mm 2 m/S 657 mmHg 48%
    08:00 +29°C° 0 mm 3 m/S 658 mmHg 42%
    09:00 +32°C° 0 mm 2 m/S 659 mmHg 33%
    10:00 +37°C° 0 mm 2 m/S 659 mmHg 25%
    11:00 +40°C° 0 mm 1 m/S 659 mmHg 17%
    12:00 +40°C° 0 mm 2 m/S 658 mmHg 15%
    13:00 +41°C° 0 mm 2 m/S 658 mmHg 14%
    14:00 +41°C° 0 mm 2 m/S 657 mmHg 13%
    15:00 +39°C° 0 mm 3 m/S 656 mmHg 13%
    16:00 +38°C° 0 mm 3 m/S 655 mmHg 14%
    17:00 +37°C° 0 mm 3 m/S 655 mmHg 15%
    18:00 +35°C° 0 mm 2 m/S 655 mmHg 18%
    19:00 +31°C° 0 mm 2 m/S 655 mmHg 21%
    20:00 +29°C° 0 mm 2 m/S 655 mmHg 24%
    21:00 +28°C° 0 mm 2 m/S 655 mmHg 26%
    22:00 +27°C° 0 mm 2 m/S 655 mmHg 27%
    23:00 +26°C° 0 mm 2 m/S 655 mmHg 29%

    Morgen, 22 November, Donnerstag

    Zeit Temperatur Niederschläge Wind Luftdruck Luftfeuchtigkeit
    00:00 +26°C° 0 mm 2 m/S 655 mmHg 32%
    01:00 +26°C° 0 mm 2 m/S 654 mmHg 34%
    02:00 +25°C° 0 mm 3 m/S 654 mmHg 37%
    03:00 +25°C° 0 mm 3 m/S 654 mmHg 43%
    04:00 +25°C° 0 mm 3 m/S 654 mmHg 50%
    05:00 +25°C° 0 mm 3 m/S 655 mmHg 56%
    06:00 +26°C° 0 mm 3 m/S 655 mmHg 53%
    07:00 +28°C° 0 mm 3 m/S 656 mmHg 49%
    08:00 +29°C° 0 mm 4 m/S 657 mmHg 46%
    09:00 +33°C° 0 mm 3 m/S 658 mmHg 39%
    10:00 +35°C° 0 mm 3 m/S 658 mmHg 31%
    11:00 +38°C° 0 mm 3 m/S 658 mmHg 24%
    12:00 +37°C° 0 mm 2 m/S 657 mmHg 25%
    13:00 +36°C° 0 mm 2 m/S 656 mmHg 25%
    14:00 +34°C° 0 mm 1 m/S 655 mmHg 26%
    15:00 +34°C° 0 mm 1 m/S 655 mmHg 27%
    16:00 +34°C° 0 mm 1 m/S 655 mmHg 27%
    17:00 +33°C° 0 mm 1 m/S 654 mmHg 28%
    18:00 +32°C° 0 mm 1 m/S 655 mmHg 32%
    19:00 +30°C° 0 mm 1 m/S 655 mmHg 36%
    20:00 +28°C° 0 mm 1 m/S 655 mmHg 40%
    21:00 +28°C° 0 mm 1 m/S 655 mmHg 43%
    22:00 +27°C° 0 mm 1 m/S 656 mmHg 46%
    23:00 +26°C° 0 mm 1 m/S 656 mmHg 49%

    übermorgen, 23 November, Freitag

    Zeit Temperatur Niederschläge Wind Luftdruck Luftfeuchtigkeit
    00:00 +26°C° 0.2 mm 1 m/S 656 mmHg 52%
    01:00 +25°C° 0.2 mm 1 m/S 655 mmHg 55%
    02:00 +25°C° 0.2 mm 1 m/S 655 mmHg 58%
    03:00 +25°C° 0.1 mm 2 m/S 655 mmHg 59%
    04:00 +24°C° 0.1 mm 2 m/S 656 mmHg 60%
    05:00 +24°C° 0.1 mm 2 m/S 656 mmHg 61%
    06:00 +25°C° 0 mm 3 m/S 657 mmHg 57%
    07:00 +26°C° 0 mm 3 m/S 658 mmHg 54%
    08:00 +27°C° 0 mm 4 m/S 659 mmHg 50%
    09:00 +30°C° 0.1 mm 4 m/S 659 mmHg 44%
    10:00 +33°C° 0.1 mm 4 m/S 659 mmHg 37%
    11:00 +35°C° 0.1 mm 3 m/S 660 mmHg 31%
    12:00 +35°C° 0 mm 3 m/S 659 mmHg 31%
    13:00 +34°C° 0 mm 3 m/S 658 mmHg 31%
    14:00 +34°C° 0 mm 2 m/S 657 mmHg 31%
    15:00 +32°C° 0.1 mm 2 m/S 657 mmHg 34%
    16:00 +31°C° 0.1 mm 2 m/S 656 mmHg 37%
    17:00 +30°C° 0.1 mm 2 m/S 656 mmHg 39%
    18:00 +29°C° 0.3 mm 2 m/S 656 mmHg 45%
    19:00 +27°C° 0.3 mm 2 m/S 656 mmHg 50%
    20:00 +26°C° 0.3 mm 2 m/S 656 mmHg 55%
    21:00 +25°C° 0.2 mm 1 m/S 656 mmHg 59%
    22:00 +24°C° 0.2 mm 1 m/S 657 mmHg 63%
    23:00 +24°C° 0.2 mm 1 m/S 657 mmHg 66%

    24 November, Samstag

    Zeit Temperatur Niederschläge Wind Luftdruck Luftfeuchtigkeit
    00:00 +23°C° 0.7 mm 1 m/S 657 mmHg 69%
    01:00 +23°C° 0.7 mm 1 m/S 656 mmHg 72%
    02:00 +23°C° 0.7 mm 1 m/S 656 mmHg 75%
    03:00 +22°C° 1.1 mm 1 m/S 656 mmHg 78%
    04:00 +22°C° 1.1 mm 1 m/S 656 mmHg 82%
    05:00 +21°C° 1.1 mm 1 m/S 657 mmHg 85%
    06:00 +21°C° 0.7 mm 2 m/S 657 mmHg 81%
    07:00 +22°C° 0.7 mm 3 m/S 658 mmHg 76%
    08:00 +24°C° 0.7 mm 3 m/S 659 mmHg 72%
    09:00 +26°C° 0.2 mm 3 m/S 659 mmHg 64%
    10:00 +27°C° 0.2 mm 3 m/S 659 mmHg 56%
    11:00 +29°C° 0.2 mm 3 m/S 659 mmHg 48%
    12:00 +30°C° 0 mm 3 m/S 658 mmHg 45%
    13:00 +30°C° 0 mm 3 m/S 658 mmHg 42%
    14:00 +32°C° 0 mm 4 m/S 657 mmHg 39%
    15:00 +30°C° 0.2 mm 3 m/S 657 mmHg 41%
    16:00 +30°C° 0.2 mm 3 m/S 657 mmHg 44%
    17:00 +29°C° 0.2 mm 3 m/S 657 mmHg 46%
    18:00 +27°C° 1.2 mm 3 m/S 657 mmHg 53%
    19:00 +26°C° 1.2 mm 2 m/S 657 mmHg 59%
    20:00 +24°C° 1.2 mm 2 m/S 657 mmHg 66%
    21:00 +24°C° 0.9 mm 1 m/S 657 mmHg 69%
    22:00 +23°C° 0.9 mm 1 m/S 657 mmHg 73%
    23:00 +23°C° 0.9 mm 1 m/S 657 mmHg 76%

    25 November, Sonntag

    Zeit Temperatur Niederschläge Wind Luftdruck Luftfeuchtigkeit
    00:00 +20°C° 0.4 mm 0 m/S 657 mmHg 76%
    01:00 +20°C° 0.4 mm 0 m/S 657 mmHg 77%
    02:00 +20°C° 0.4 mm 0 m/S 656 mmHg 77%
    03:00 +22°C° 0 mm 1 m/S 657 mmHg 79%
    04:00 +21°C° 0 mm 1 m/S 657 mmHg 80%
    05:00 +21°C° 0 mm 1 m/S 657 mmHg 81%
    06:00 +22°C° 0 mm 1 m/S 657 mmHg 74%
    07:00 +24°C° 0 mm 2 m/S 658 mmHg 67%
    08:00 +25°C° 0 mm 2 m/S 659 mmHg 60%
    09:00 +27°C° 0.2 mm 3 m/S 659 mmHg 54%
    10:00 +28°C° 0.2 mm 3 m/S 659 mmHg 48%
    11:00 +30°C° 0.2 mm 3 m/S 659 mmHg 42%
    12:00 +30°C° 0.1 mm 3 m/S 658 mmHg 42%
    13:00 +30°C° 0.1 mm 2 m/S 658 mmHg 42%
    14:00 +30°C° 0.1 mm 2 m/S 657 mmHg 42%
    15:00 +29°C° 0.1 mm 2 m/S 656 mmHg 42%
    16:00 +29°C° 0.1 mm 2 m/S 656 mmHg 42%
    17:00 +29°C° 0.1 mm 2 m/S 656 mmHg 42%
    18:00 +28°C° 0.1 mm 2 m/S 656 mmHg 47%
    19:00 +27°C° 0.1 mm 2 m/S 656 mmHg 52%
    20:00 +25°C° 0.1 mm 2 m/S 657 mmHg 57%
    21:00 +24°C° 0.3 mm 2 m/S 657 mmHg 62%
    22:00 +24°C° 0.3 mm 2 m/S 657 mmHg 67%
    23:00 +23°C° 0.3 mm 2 m/S 656 mmHg 72%

    26 November, Montag

    Zeit Temperatur Niederschläge Wind Luftdruck Luftfeuchtigkeit
    00:00 +21°C° 0.1 mm 2 m/S 656 mmHg 74%
    01:00 +22°C° 0.1 mm 1 m/S 656 mmHg 76%
    02:00 +22°C° 0.1 mm 1 m/S 655 mmHg 79%
    03:00 +21°C° 0 mm 1 m/S 655 mmHg 79%
    04:00 +21°C° 0 mm 1 m/S 655 mmHg 80%
    05:00 +21°C° 0 mm 1 m/S 656 mmHg 80%
    06:00 +22°C° 0 mm 1 m/S 656 mmHg 75%
    07:00 +23°C° 0 mm 2 m/S 657 mmHg 70%
    08:00 +24°C° 0 mm 2 m/S 658 mmHg 65%
    09:00 +26°C° 0 mm 2 m/S 658 mmHg 57%
    10:00 +28°C° 0 mm 2 m/S 658 mmHg 49%
    11:00 +30°C° 0 mm 3 m/S 658 mmHg 41%
    12:00 +30°C° 0 mm 2 m/S 657 mmHg 41%
    13:00 +30°C° 0 mm 2 m/S 656 mmHg 40%
    14:00 +30°C° 0 mm 2 m/S 656 mmHg 39%
    15:00 +30°C° 0.1 mm 1 m/S 655 mmHg 41%
    16:00 +29°C° 0.1 mm 1 m/S 655 mmHg 44%
    17:00 +28°C° 0.1 mm 1 m/S 655 mmHg 46%
    18:00 +27°C° 0.1 mm 1 m/S 655 mmHg 50%
    19:00 +26°C° 0.1 mm 1 m/S 655 mmHg 55%
    20:00 +25°C° 0.1 mm 1 m/S 655 mmHg 59%
    21:00 +25°C° 0 mm 1 m/S 655 mmHg 62%
    22:00 +24°C° 0 mm 1 m/S 655 mmHg 65%
    23:00 +23°C° 0 mm 1 m/S 655 mmHg 68%
    Mehr zeigen